Overview Statistics Trail Chart Weather Telemetry Raw packets
 

This is the latest recevied weather packets stored in our database for station/object WA6ODQ-13. If no packets are shown the sender has not sent any weather packets the latest 10 day(s).

<< 65 66 67 68 69 70 71 >>
Time Temp. Humidity Pressure Rain* Wind** Luminosity Snow
1788213641 23.33° C 57% 1009.8 hPa 0 mm - 573 W/m² -
1788213336 23.89° C 55% 1009.7 hPa 0 mm - 583 W/m² -
1788213031 23.89° C 55% 1009.7 hPa 0 mm - 591 W/m² -
1788212729 22.78° C 56% 1010 hPa 0 mm - 598 W/m² -
1788212425 22.78° C 56% 1010 hPa 0 mm - 607 W/m² -
1788212121 22.78° C 58% 1009.8 hPa 0 mm - 613 W/m² -
1788211816 22.22° C 58% 1010 hPa 0 mm - 621 W/m² -
1788211513 22.22° C 59% 1010 hPa 0 mm - 627 W/m² -
1788211208 22.22° C 59% 1010.2 hPa 0 mm - 633 W/m² -
1788210903 22.22° C 59% 1010.2 hPa 0 mm - 639 W/m² -
1788210601 21.67° C 60% 1010.2 hPa 0 mm - 645 W/m² -
1788210297 22.22° C 59% 1010.1 hPa 0 mm - 651 W/m² -
1788209993 21.67° C 59% 1010.3 hPa 0 mm - 657 W/m² -
1788209688 21.67° C 60% 1010.1 hPa 0 mm - 664 W/m² -
1788209384 21.67° C 59% 1010.2 hPa 0 mm - 668 W/m² -
1788209082 22.22° C 59% 1010.3 hPa 0 mm - 670 W/m² -
1788208776 21.67° C 59% 1010.2 hPa 0 mm - 668 W/m² -
1788208470 21.67° C 59% 1010.3 hPa 0 mm - 669 W/m² -
1788208169 21.11° C 60% 1010.4 hPa 0 mm - 666 W/m² -
1788207865 21.11° C 60% 1010.3 hPa 0 mm - 677 W/m² -
1788207563 21.67° C 60% 1010.6 hPa 0 mm - 677 W/m² -
1788207262 21.67° C 61% 1010.3 hPa 0 mm - 678 W/m² -
1788206958 21.11° C 61% 1010.4 hPa 0 mm - 676 W/m² -
1788206664 21.11° C 62% 1010.5 hPa 0 mm - 677 W/m² -
1788206348 21.11° C 62% 1010.4 hPa 0 mm - 678 W/m² -

* Rain latest hour (hover to see other rain measurements)
** Current wind speed in m/s (hover to see current wind gust speed)